Location: Napa Junction
(38.1874°N, 122.2508°W)
Time: 15:40:11
(UTC+00:00)

Cosmos 1602 Rocket - Pass Details

Date: 08 September 2024
Orbit: 600 x 628 km, 82.5° (Epoch: 08 October)

Event Time Altitude Azimuth Distance (km) Brightness Sun altitude
Rises 12:51:30 0° 344° (NNW) 2,927 7.0 -11.2°
Reaches altitude 10° 12:53:51 10° 337° (NNW) 2,014 6.1 -10.7°
Maximum altitude 12:58:01 40° 268° (W) 930 4.0 -9.9°
Drops below altitude 10° 13:02:09 10° 199° (SSW) 1,992 5.8 -9.1°
Sets 13:04:27 0° 192° (SSW) 2,890 6.7 -8.7°
